Stündliche Wetter Kytchenkivka

Heute, 16 Mai, Sonntag

Zeit Temperatur Niederschläge Wind Luftdruck Luftfeuchtigkeit
00:00 +16°C° 0 mm 2 m/S 744 mmHg 72%
01:00 +16°C° 0 mm 2 m/S 744 mmHg 72%
02:00 +16°C° 0 mm 2 m/S 744 mmHg 72%
03:00 +15°C° 0 mm 1 m/S 744 mmHg 74%
04:00 +15°C° 0 mm 1 m/S 744 mmHg 77%
05:00 +15°C° 0 mm 1 m/S 744 mmHg 79%
06:00 +18°C° 0 mm 1 m/S 744 mmHg 74%
07:00 +19°C° 0 mm 1 m/S 744 mmHg 68%
08:00 +19°C° 0 mm 0 m/S 745 mmHg 62%
09:00 +22°C° 0 mm 1 m/S 745 mmHg 58%
10:00 +23°C° 0 mm 1 m/S 744 mmHg 53%
11:00 +25°C° 0 mm 1 m/S 744 mmHg 49%
12:00 +25°C° 0 mm 2 m/S 744 mmHg 47%
13:00 +26°C° 0 mm 2 m/S 744 mmHg 45%
14:00 +26°C° 0 mm 2 m/S 744 mmHg 42%
15:00 +26°C° 0 mm 2 m/S 743 mmHg 47%
16:00 +25°C° 0 mm 3 m/S 743 mmHg 52%
17:00 +25°C° 0 mm 3 m/S 742 mmHg 57%
18:00 +22°C° 0.1 mm 3 m/S 742 mmHg 63%
19:00 +20°C° 0.1 mm 3 m/S 742 mmHg 70%
20:00 +18°C° 0.1 mm 4 m/S 742 mmHg 77%
21:00 +18°C° 0.4 mm 4 m/S 741 mmHg 81%
22:00 +17°C° 0.4 mm 4 m/S 741 mmHg 85%
23:00 +17°C° 0.4 mm 4 m/S 740 mmHg 89%

Morgen, 17 Mai, Montag

Zeit Temperatur Niederschläge Wind Luftdruck Luftfeuchtigkeit
00:00 +17°C° 0 mm 4 m/S 740 mmHg 89%
01:00 +17°C° 0 mm 4 m/S 740 mmHg 89%
02:00 +17°C° 0 mm 4 m/S 739 mmHg 88%
03:00 +15°C° 0 mm 4 m/S 739 mmHg 87%
04:00 +15°C° 0 mm 4 m/S 739 mmHg 85%
05:00 +14°C° 0 mm 4 m/S 739 mmHg 84%
06:00 +16°C° 0 mm 5 m/S 738 mmHg 79%
07:00 +17°C° 0 mm 6 m/S 738 mmHg 74%
08:00 +19°C° 0 mm 6 m/S 737 mmHg 69%
09:00 +21°C° 0 mm 6 m/S 738 mmHg 64%
10:00 +22°C° 0 mm 7 m/S 738 mmHg 59%
11:00 +24°C° 0 mm 7 m/S 738 mmHg 54%
12:00 +24°C° 0 mm 7 m/S 738 mmHg 56%
13:00 +26°C° 0 mm 6 m/S 737 mmHg 59%
14:00 +27°C° 0 mm 6 m/S 737 mmHg 61%
15:00 +26°C° 0 mm 6 m/S 737 mmHg 63%
16:00 +26°C° 0 mm 6 m/S 737 mmHg 65%
17:00 +24°C° 0 mm 6 m/S 737 mmHg 66%
18:00 +23°C° 0 mm 5 m/S 738 mmHg 71%
19:00 +21°C° 0 mm 5 m/S 738 mmHg 76%
20:00 +20°C° 0 mm 4 m/S 738 mmHg 81%
21:00 +19°C° 0 mm 4 m/S 738 mmHg 81%
22:00 +16°C° 0 mm 5 m/S 738 mmHg 80%
23:00 +15°C° 0 mm 5 m/S 738 mmHg 79%

übermorgen, 18 Mai, Dienstag

Zeit Temperatur Niederschläge Wind Luftdruck Luftfeuchtigkeit
00:00 +15°C° 0 mm 5 m/S 738 mmHg 81%
01:00 +14°C° 0 mm 6 m/S 738 mmHg 84%
02:00 +14°C° 0 mm 6 m/S 739 mmHg 86%
03:00 +14°C° 0 mm 6 m/S 739 mmHg 87%
04:00 +14°C° 0 mm 6 m/S 739 mmHg 87%
05:00 +14°C° 0 mm 6 m/S 739 mmHg 88%
06:00 +15°C° 0 mm 6 m/S 739 mmHg 85%
07:00 +16°C° 0 mm 6 m/S 739 mmHg 82%
08:00 +17°C° 0 mm 6 m/S 739 mmHg 79%
09:00 +19°C° 0 mm 6 m/S 739 mmHg 75%
10:00 +20°C° 0 mm 6 m/S 739 mmHg 70%
11:00 +21°C° 0 mm 6 m/S 739 mmHg 66%
12:00 +21°C° 0.7 mm 6 m/S 739 mmHg 66%
13:00 +21°C° 0.7 mm 6 m/S 739 mmHg 67%
14:00 +21°C° 0.7 mm 6 m/S 738 mmHg 67%
15:00 +21°C° 0.5 mm 6 m/S 738 mmHg 71%
16:00 +20°C° 0.5 mm 6 m/S 738 mmHg 75%
17:00 +19°C° 0.5 mm 5 m/S 738 mmHg 79%
18:00 +17°C° 0.5 mm 5 m/S 738 mmHg 84%
19:00 +16°C° 0.5 mm 5 m/S 738 mmHg 88%
20:00 +15°C° 0.5 mm 5 m/S 738 mmHg 92%
21:00 +15°C° 0.3 mm 5 m/S 738 mmHg 93%
22:00 +15°C° 0.3 mm 5 m/S 738 mmHg 93%
23:00 +14°C° 0.3 mm 5 m/S 738 mmHg 94%

19 Mai, Mittwoch

Zeit Temperatur Niederschläge Wind Luftdruck Luftfeuchtigkeit
00:00 +14°C° 0.9 mm 4 m/S 738 mmHg 95%
01:00 +14°C° 0.9 mm 4 m/S 738 mmHg 95%
02:00 +13°C° 0.9 mm 3 m/S 738 mmHg 96%
03:00 +13°C° 0.3 mm 3 m/S 738 mmHg 95%
04:00 +13°C° 0.3 mm 3 m/S 738 mmHg 95%
05:00 +12°C° 0.3 mm 3 m/S 738 mmHg 94%
06:00 +12°C° 0.4 mm 3 m/S 738 mmHg 92%
07:00 +12°C° 0.4 mm 4 m/S 738 mmHg 89%
08:00 +12°C° 0.4 mm 4 m/S 739 mmHg 87%
09:00 +13°C° 0.1 mm 5 m/S 739 mmHg 84%
10:00 +13°C° 0.1 mm 6 m/S 739 mmHg 81%
11:00 +14°C° 0.1 mm 6 m/S 739 mmHg 78%
12:00 +13°C° 0.1 mm 6 m/S 740 mmHg 80%
13:00 +13°C° 0.1 mm 6 m/S 740 mmHg 82%
14:00 +11°C° 0.1 mm 6 m/S 740 mmHg 84%
15:00 +11°C° 0.1 mm 7 m/S 740 mmHg 85%
16:00 +11°C° 0.1 mm 7 m/S 740 mmHg 86%
17:00 +10°C° 0.1 mm 7 m/S 740 mmHg 86%
18:00 +10°C° 0.1 mm 7 m/S 740 mmHg 86%
19:00 +10°C° 0.1 mm 8 m/S 741 mmHg 86%
20:00 +10°C° 0.1 mm 8 m/S 741 mmHg 86%
21:00 +9°C° 0 mm 8 m/S 741 mmHg 86%
22:00 +9°C° 0 mm 7 m/S 742 mmHg 86%
23:00 +9°C° 0 mm 7 m/S 742 mmHg 86%

20 Mai, Donnerstag

Zeit Temperatur Niederschläge Wind Luftdruck Luftfeuchtigkeit
00:00 +8°C° 0 mm 6 m/S 742 mmHg 88%
01:00 +8°C° 0 mm 6 m/S 742 mmHg 89%
02:00 +8°C° 0 mm 6 m/S 743 mmHg 90%
03:00 +8°C° 0 mm 5 m/S 743 mmHg 90%
04:00 +8°C° 0 mm 5 m/S 743 mmHg 89%
05:00 +8°C° 0 mm 4 m/S 743 mmHg 88%
06:00 +11°C° 0 mm 4 m/S 744 mmHg 83%
07:00 +12°C° 0 mm 5 m/S 744 mmHg 78%
08:00 +14°C° 0 mm 5 m/S 744 mmHg 73%
09:00 +15°C° 0 mm 5 m/S 744 mmHg 68%
10:00 +17°C° 0 mm 4 m/S 745 mmHg 63%
11:00 +19°C° 0 mm 4 m/S 745 mmHg 58%
12:00 +19°C° 0 mm 3 m/S 745 mmHg 56%
13:00 +19°C° 0 mm 3 m/S 745 mmHg 54%
14:00 +20°C° 0 mm 3 m/S 744 mmHg 52%
15:00 +19°C° 0 mm 2 m/S 744 mmHg 56%
16:00 +19°C° 0 mm 2 m/S 744 mmHg 59%
17:00 +20°C° 0 mm 1 m/S 744 mmHg 62%
18:00 +18°C° 0 mm 2 m/S 744 mmHg 64%
19:00 +17°C° 0 mm 3 m/S 744 mmHg 65%
20:00 +16°C° 0 mm 3 m/S 744 mmHg 67%
21:00 +14°C° 0 mm 4 m/S 743 mmHg 69%
22:00 +14°C° 0 mm 4 m/S 743 mmHg 71%
23:00 +14°C° 0 mm 5 m/S 743 mmHg 73%

21 Mai, Freitag

Zeit Temperatur Niederschläge Wind Luftdruck Luftfeuchtigkeit
00:00 +14°C° 0 mm 6 m/S 742 mmHg 74%
01:00 +14°C° 0 mm 7 m/S 741 mmHg 75%
02:00 +14°C° 0 mm 7 m/S 740 mmHg 76%
03:00 +13°C° 0.9 mm 8 m/S 740 mmHg 80%
04:00 +13°C° 0.9 mm 8 m/S 739 mmHg 83%
05:00 +12°C° 0.9 mm 8 m/S 738 mmHg 86%
06:00 +14°C° 0.2 mm 7 m/S 738 mmHg 86%
07:00 +15°C° 0.2 mm 7 m/S 738 mmHg 85%
08:00 +16°C° 0.2 mm 7 m/S 738 mmHg 85%
09:00 +17°C° 0.1 mm 7 m/S 738 mmHg 82%
10:00 +17°C° 0.1 mm 7 m/S 738 mmHg 79%
11:00 +19°C° 0.1 mm 6 m/S 738 mmHg 76%
12:00 +20°C° 0 mm 7 m/S 738 mmHg 68%
13:00 +20°C° 0 mm 7 m/S 738 mmHg 61%
14:00 +21°C° 0 mm 8 m/S 739 mmHg 54%
15:00 +20°C° 0 mm 8 m/S 739 mmHg 58%
16:00 +18°C° 0 mm 8 m/S 739 mmHg 62%
17:00 +18°C° 0 mm 8 m/S 739 mmHg 66%
18:00 +16°C° 0 mm 8 m/S 739 mmHg 68%
19:00 +15°C° 0 mm 8 m/S 740 mmHg 70%
20:00 +12°C° 0 mm 8 m/S 740 mmHg 72%
21:00 +12°C° 0 mm 7 m/S 740 mmHg 74%
22:00 +12°C° 0 mm 7 m/S 741 mmHg 77%
23:00 +13°C° 0 mm 6 m/S 741 mmHg 79%
Mehr zeigen

Wir brauchen deine Erlaubnis

Meteoprog und unser Service Anbieter werden persönliche Daten aufbewahren, so wie Cookies, Geräte Bezeichnung oder ähnliche Technologien von deinem Gerät und Prozess, so wie Persönliche Daten Inhalte und Werbungen, genauso wie social Media und den Verkehr zu analysieren.

  • Aufbewahrung und/oder Zugang zu deiner Geräte Informationen.

    Cookies, Geräte Bezeichnung oder andere Informationen, können aufbewahrt oder Zugang zu deinem Gerät erhalten, für den Grund, der oben angegeben wird.

  • Personalisierte Werbung und Inhalte, Messungen, Einblick in das Publikum und Produkt Entwicklung.

    Werbungen und Inhalte können personalisiert werden, basierend auf ein Profil. Mehr Daten können besser personalisierte Werbungen und Inhalte hinzufügen. Werbung und Inhalte können gezeigt und gemessen werden. Einblicke über das Publikum, welche die Werbung gesehen haben und den Inhalt, können abgeleitet werden. So wie Daten können genutzt werden, um es zu verbessern oder die Benutzer Erfahrung zu verbessern das System und die Software.

Wenn du “Ich stimme zu” klickst, erlaubst du uns, die Cookies zu benutzen die Geräte Bezeichnung, den Web oder ähnliche Technologien zu benutzen. Deine Settings, können in deinem Gerät bei deinem Browser geändert werden.

Für den bestimmten Zweck, berechtigten Interessen beruhen darauf, mehr als auf den Inhalt. Du kannst mehr darüber in unseren Privaten und Cookie Politik lesen.